Miscellaneous Local Product
Issued by NWS Hastings, NE

Home | Current Version | Previous Version | Text Only | Print | Product List | Glossary On
Versions: 1 2 3 4 5 6 7 8 9 10 11 12 13 14 15 16 17 18 19 20 21 22 23 24 25 26 27 28 29 30 31 32 33 34 35 36 37 38 39 40 41 42 43 44 45 46 47 48 49 50
228
AXUS43 KGID 291302
MISGRI

GID CWA HOURLY WEATHER ROUNDUP
NATIONAL WEATHER SERVICE HASTINGS NE
800 AM CDT THU SEP 29 2016

NOTE: "FAIR" INDICATES FEW OR NO CLOUDS BELOW 12,000 FEET WITH NO
SIGNIFICANT WEATHER AND/OR OBSTRUCTIONS TO VISIBILITY.

...SOUTH CENTRAL NEBRASKA...

CITY           SKY/WX    TMP DP  RH WIND       PRES   REMARKS
GRAND ISLAND   CLEAR     40  38  93 CALM      30.45R
HASTINGS       CLOUDY    40  38  93 CALM      30.45R
KEARNEY        CLEAR     39  36  87 NW5       30.45R
ORD            LGT RAIN  34  32  92 CALM      30.44R
YORK           CLOUDY    39  39 100 CALM      30.44R
AURORA         CLEAR     40  40 100 N3        30.44S
LEXINGTON      CLOUDY    36  35  93 W3        30.45R
HOLDREGE       CLOUDY    37  36  94 CALM      30.44S
HEBRON         CLOUDY    41  40  97 CALM      30.44R

...NEBRASKA PANHANDLE...

CITY           SKY/WX    TMP DP  RH WIND       PRES   REMARKS
CHADRON        CLEAR     50  36  58 S5        30.32S
ALLIANCE       CLEAR     41  37  86 SE8       30.35S
SCOTTSBLUFF    CLEAR     45  37  73 E8        30.34R
SIDNEY         CLEAR     44  39  82 S7        30.37S

...WESTERN AND NORTH CENTRAL NEBRASKA...

CITY           SKY/WX    TMP DP  RH WIND       PRES   REMARKS
VALENTINE      CLOUDY    38  35  89 NE3       30.42R
AINSWORTH      CLOUDY    37  37 100 S6        30.43S WCI  33
ONEILL         CLOUDY    40  38  95 CALM      30.46R
BROKEN BOW     CLOUDY    34  33  96 CALM      30.44R
IMPERIAL       CLOUDY    41  36  82 SE8       30.40S
NORTH PLATTE   CLOUDY    34  32  92 E6        30.43S WCI  29
MCCOOK         CLOUDY    39  37  92 CALM      30.43R

...EASTERN NEBRASKA...

CITY           SKY/WX    TMP DP  RH WIND       PRES   REMARKS
NORFOLK        CLOUDY    39  37  92 W3        30.45R
SO SIOUX CITY  CLOUDY    43  42  97 NW3       30.45R
TEKAMAH        CLEAR     43  41  93 N5        30.43R
COLUMBUS       CLOUDY    41  34  75 CALM      30.45R
ALBION         CLOUDY    36  35  96 NW5       30.46R WCI  32
OMAHA EPPLEY   CLEAR     46  42  86 N8        30.42R
OFFUTT AFB     CLEAR     46  46  99 NW2       30.41R
MILLARD        CLEAR     48  45  91 CALM      30.42R
LINCOLN        CLEAR     44  43  96 N5        30.45R
NEBRASKA CITY  CLEAR     47  46  97 N5        30.41R
BEATRICE       CLEAR     43  43  99 W5        30.42R
FALLS CITY     CLEAR     48  46  93 NW6       30.39R

...NORTHERN KANSAS...

CITY           SKY/WX    TMP DP  RH WIND       PRES   REMARKS
GOODLAND       CLEAR     40  37  89 S7        30.40R
HILL CITY      CLOUDY    39  37  92 CALM      30.44R
NORTON         SUNNY     37  30  75 CALM      30.43
PHILLIPSBURG   CLEAR     41  41 100 W5        30.45R
SMITH CENTER   CLEAR     37  37 100 CALM      30.45R
HAYS           CLEAR     43  32  65 N5        30.43R
RUSSELL        CLEAR     43  42  97 NW7       30.42R
CONCORDIA      CLOUDY    44  44 100 W6        30.43R
SALINA         CLEAR     47  44  90 NW7       30.42R
TOPEKA         CLEAR     51  47  86 NW5       30.38R



USA.gov is the U.S. government's official web portal to all federal, state and local government web resources and services.